ONEWEB-0548, 56050

Orbit data source: Space-Track

ONEWEB-0548, 56050 is a payload satellite owned by One Web (NAA) (UK) in LEO that was launched on Sun, 26 Mar 2023 UTC via a LVM3 launch vehicle from the Sirharikota (SRI). Payload-class satellites include a variety of spacecraft equipped with specific instruments for various scientific and technological missions. These include communications satellites like Starlink; space stations such as the ISS; scientific satellites like the Hubble; Earth observation satellites from companies like Planet Labs, Umbra, and HawkEye 360; GPS; miniature CubeSats for education and research; and military/defense satellites.

Loading next visibility...
Identifier
56050, 2023-043E
Orbit
LEO
Country
Flag of UKUK
Related business
Manufacturer
One Web
Mission
Operational Commercial Communications
Bus & Motor
ARROW, Unknown motor
Mass
148 kg wet, ~140 kg dry
Launch date (UTC)
2023-03-26 (3 years ago)
Launch vehicle
LVM3
Launch site
Sirharikota (SRI)
Object type
Payload
Rocket body
Debris
Shape & HBR
Trap Box + 2 Pan, 6.7 m
Radar Cross Section
3.464 m², Large (>1 m²)

Expand to show TLE details & history
Last TLE update: 2 days ago

TLE from 2 days ago
0 ONEWEB-0548
1 56050U 23043E   26171.39199656  .00000086  00000-0  19022-3 0  9994
2 56050  87.9092 228.1339 0001939  84.0200 276.1152 13.16593585159383
Epoch: 2026-06-20T09:24Z
TLE epoch observation values (Epoch: 2026-06-20T09:24:28.502Z)
Latitude
-0.00003°
Longitude
178.40786°
Altitude
1,200.5 km
Speed
7.254 km/s
True Right ascension
15h 12m 32s
True Declination
0° 00' 00"
Sunlit
Object was in full shadow at epoch
Visualization orbit readout
Latitude
Unknown
Longitude
Unknown
Altitude
Unknown
Speed
Unknown
Apparent Right ascension
Unknown
Apparent Declination
Unknown
Sunlit
N/A
Visualization observer readout
Local Sidereal Time
21:26:29
Azimuth
Unknown
Elevation
Unknown
Doppler factor
Unknown
Orbital elements
Apogee altitude
1,196.338 km
Perigee altitude
1,193.401 km
Semi-major axis
7,573.007 km
Eccentricity
0.00019
Inclination
87.9092°
RAAN
228.1339°
Arg. of periapsis
84.02°
True anomaly
276.09311°
Mean anomaly
276.1152°
Eccentric anomaly
276.10415°
Mean motion
3.29337 °/min
Orbital period
109.31 mins
BSTAR
0.00019022
Loading maneuver chart data...
Computing Atmospheric mass density...
Loading historical data...
Loading historical data...
Loading historical data...
Loading historical data...
Loading historical data...
Loading historical data...
Loading historical data...

Documentation

Showing up to 5 results
|